Overview Statistics Trail Chart Weather Telemetry Raw packets
 

This is the latest recevied weather packets stored in our database for station/object DL2AKT-20. If no packets are shown the sender has not sent any weather packets the latest 10 day(s).

<< 40 41 42 43 44 45 >>
Time Temp. Humidity Pressure Rain* Wind** Luminosity Snow
1777248694 11.67° C 37% 1026.6 hPa - - - -
1777247794 11.11° C 37% 1026.7 hPa - - - -
1777246894 11.67° C 37% 1026.7 hPa - - - -
1777245994 11.11° C 38% 1026.7 hPa - - - -
1777245094 11.11° C 38% 1026.6 hPa - - - -
1777244194 11.67° C 38% 1026.6 hPa - - - -
1777243294 10.56° C 39% 1026.7 hPa - - - -
1777242394 11.67° C 39% 1026.7 hPa - - - -
1777241494 12.22° C 37% 1026.7 hPa - - - -
1777240594 11.67° C 37% 1026.7 hPa - - - -
1777239694 12.22° C 36% 1026.8 hPa - - - -
1777238793 12.22° C 36% 1026.9 hPa - - - -
1777237893 12.22° C 38% 1026.9 hPa - - - -
1777236993 12.78° C 37% 1027 hPa - - - -
1777236093 13.33° C 36% 1027 hPa - - - -
1777235193 12.78° C 36% 1026.9 hPa - - - -
1777234293 13.33° C 35% 1026.8 hPa - - - -
1777233392 12.78° C 36% 1026.8 hPa - - - -
1777232491 13.33° C 35% 1026.7 hPa - - - -
1777231595 13.89° C 34% 1026.8 hPa - - - -
1777230695 14.44° C 33% 1026.8 hPa - - - -
1777229795 15° C 32% 1026.6 hPa - - - -
1777228895 15.56° C 32% 1026.5 hPa - - - -
1777227995 15.56° C 31% 1026.4 hPa - - - -
1777227095 16.11° C 32% 1026.4 hPa - - - -

* Rain since midnight (hover to see other rain measurements)
** Current wind speed in m/s (hover to see current wind gust speed)